| time (UTC) | temp C | wind direction | speed KPH | gust KPH | rain 1hr cm | rain 24hr cm | rain mn cm | humidity % | barometer mb |
| 20260506202004 | 15 | 225 | 3.2 | 3.2 | 0.00 | 0.46 | 0.46 | 95 | 970.1 |
| 20260506201504 | 15 | 270 | 3.2 | 3.2 | 0.00 | 0.46 | 0.46 | 95 | 970.1 |
| 20260506201004 | 15 | 189 | 3.2 | 4.8 | 0.00 | 0.46 | 0.46 | 95 | 970.1 |
| 20260506200504 | 15 | 174 | 3.2 | 4.8 | 0.00 | 0.46 | 0.46 | 95 | 970.1 |
| 20260506200005 | 15 | 221 | 3.2 | 4.8 | 0.00 | 0.46 | 0.46 | 95 | 970.2 |
| 20260506195504 | 15 | 210 | 1.6 | 9.7 | 0.00 | 0.46 | 0.46 | 95 | 970.2 |
| 20260506194504 | 15 | 220 | 3.2 | 4.8 | 0.00 | 0.46 | 0.46 | 95 | 970.3 |
| 20260506194004 | 15 | 225 | 3.2 | 3.2 | 0.00 | 0.46 | 0.46 | 95 | 970.3 |
| 20260506193004 | 15 | 140 | 3.2 | 4.8 | 0.05 | 0.46 | 0.46 | 95 | 970.4 |
| 20260506192504 | 15 | 180 | 4.8 | 4.8 | 0.05 | 0.46 | 0.46 | 95 | 970.6 |
| 20260506192004 | 15 | 229 | 3.2 | 8.0 | 0.05 | 0.46 | 0.46 | 95 | 970.6 |
| 20260506191504 | 15 | 164 | 1.6 | 8.0 | 0.05 | 0.46 | 0.46 | 95 | 970.6 |
| 20260506191004 | 15 | 197 | 1.6 | 4.8 | 0.05 | 0.46 | 0.46 | 95 | 970.7 |
| 20260506190504 | 15 | 204 | 3.2 | 4.8 | 0.08 | 0.46 | 0.46 | 95 | 970.7 |
| 20260506190005 | 15 | 165 | 1.6 | 3.2 | 0.08 | 0.46 | 0.46 | 95 | 970.7 |
| 20260506185505 | 15 | 194 | 3.2 | 4.8 | 0.10 | 0.46 | 0.46 | 95 | 970.7 |
| 20260506184505 | 15 | 171 | 0.0 | 3.2 | 0.10 | 0.46 | 0.46 | 95 | 970.9 |
| 20260506183504 | 15 | 210 | 1.6 | 4.8 | 0.08 | 0.43 | 0.43 | 95 | 971.0 |
| 20260506183005 | 15 | 180 | 3.2 | 4.8 | 0.05 | 0.41 | 0.41 | 95 | 971.0 |
| 20260506182004 | 15 | 199 | 3.2 | 3.2 | 0.05 | 0.41 | 0.41 | 95 | 971.1 |
| 20260506181504 | 15 | 228 | 4.8 | 8.0 | 0.05 | 0.41 | 0.41 | 95 | 971.1 |
| 20260506181004 | 15 | 134 | 4.8 | 4.8 | 0.08 | 0.41 | 0.41 | 95 | 971.1 |
| 20260506180504 | 15 | 196 | 3.2 | 3.2 | 0.05 | 0.38 | 0.38 | 95 | 971.1 |
| 20260506175504 | 15 | 190 | 3.2 | 9.7 | 0.03 | 0.36 | 0.36 | 95 | 971.2 |
| 20260506175004 | 15 | 158 | 3.2 | 4.8 | 0.03 | 0.36 | 0.36 | 95 | 971.2 |
| 20260506174504 | 15 | 185 | 1.6 | 4.8 | 0.05 | 0.36 | 0.36 | 95 | 971.2 |
| 20260506174004 | 15 | 199 | 4.8 | 8.0 | 0.05 | 0.36 | 0.36 | 95 | 971.2 |
| 20260506173504 | 15 | 175 | 0.0 | 3.2 | 0.05 | 0.36 | 0.36 | 95 | 971.2 |
| 20260506173004 | 15 | 235 | 4.8 | 8.0 | 0.08 | 0.36 | 0.36 | 95 | 971.2 |
| 20260506172004 | 15 | 223 | 3.2 | 9.7 | 0.10 | 0.36 | 0.36 | 95 | 971.2 |
| 20260506171504 | 15 | 169 | 4.8 | 8.0 | 0.10 | 0.36 | 0.36 | 95 | 971.2 |
| 20260506171004 | 15 | 180 | 6.4 | 9.7 | 0.08 | 0.33 | 0.33 | 95 | 971.2 |
| 20260506165504 | 15 | 225 | 1.6 | 4.8 | 0.13 | 0.33 | 0.33 | 95 | 971.3 |
| 20260506165005 | 15 | 188 | 1.6 | 4.8 | 0.13 | 0.33 | 0.33 | 95 | 971.3 |
| 20260506164504 | 15 | 195 | 3.2 | 9.7 | 0.13 | 0.30 | 0.30 | 95 | 971.4 |
| 20260506164004 | 15 | 212 | 4.8 | 9.7 | 0.15 | 0.30 | 0.30 | 95 | 971.4 |
| 20260506163004 | 15 | 192 | 3.2 | 4.8 | 0.15 | 0.28 | 0.28 | 95 | 971.2 |
| 20260506162004 | 15 | 228 | 1.6 | 4.8 | 0.15 | 0.25 | 0.25 | 94 | 971.3 |
| 20260506161004 | 15 | 207 | 4.8 | 4.8 | 0.15 | 0.25 | 0.25 | 94 | 971.4 |
| 20260506160504 | 15 | 205 | 4.8 | 9.7 | 0.15 | 0.25 | 0.25 | 94 | 971.4 |
| 20260506160004 | 15 | 132 | 4.8 | 8.0 | 0.13 | 0.23 | 0.23 | 94 | 971.8 |
| 20260506155504 | 15 | 157 | 3.2 | 8.0 | 0.10 | 0.20 | 0.20 | 94 | 971.8 |
| 20260506154504 | 15 | 183 | 3.2 | 4.8 | 0.10 | 0.18 | 0.18 | 94 | 972.3 |
| 20260506154004 | 15 | 204 | 3.2 | 4.8 | 0.08 | 0.15 | 0.15 | 93 | 972.3 |
| 20260506153504 | 15 | 222 | 3.2 | 8.0 | 0.08 | 0.13 | 0.13 | 93 | 971.9 |
| 20260506153004 | 16 | 237 | 4.8 | 9.7 | 0.08 | 0.13 | 0.13 | 93 | 971.9 |
| 20260506152504 | 16 | 166 | 1.6 | 3.2 | 0.08 | 0.13 | 0.13 | 93 | 971.7 |
| 20260506151504 | 16 | 219 | 4.8 | 8.0 | 0.08 | 0.10 | 0.10 | 93 | 971.7 |
| 20260506150504 | 16 | 143 | 3.2 | 8.0 | 0.10 | 0.10 | 0.10 | 93 | 971.9 |
| 20260506145504 | 15 | 207 | 3.2 | 4.8 | 0.10 | 0.10 | 0.10 | 93 | 971.9 |
| 20260506145004 | 15 | 163 | 4.8 | 4.8 | 0.08 | 0.08 | 0.08 | 93 | 972.0 |
| 20260506144504 | 15 | 158 | 3.2 | 4.8 | 0.08 | 0.08 | 0.08 | 92 | 972.2 |
| 20260506144004 | 15 | 138 | 3.2 | 3.2 | 0.08 | 0.08 | 0.08 | 92 | 972.2 |
| 20260506143504 | 15 | 211 | 3.2 | 4.8 | 0.05 | 0.05 | 0.05 | 92 | 972.4 |
| 20260506143004 | 15 | 158 | 0.0 | 1.6 | 0.05 | 0.05 | 0.05 | 92 | 972.4 |
| 20260506142504 | 15 | 157 | 3.2 | 3.2 | 0.05 | 0.05 | 0.05 | 92 | 972.5 |
| 20260506142005 | 15 | 168 | 3.2 | 3.2 | 0.03 | 0.03 | 0.03 | 91 | 972.5 |
| 20260506141504 | 15 | 158 | 3.2 | 4.8 | 0.03 | 0.03 | 0.03 | 91 | 972.5 |
| 20260506140504 | 16 | 169 | 3.2 | 3.2 | 0.00 | 0.00 | 0.00 | 90 | 972.5 |
| 20260506135504 | 16 | 161 | 3.2 | 3.2 | 0.00 | 0.00 | 0.00 | 89 | 972.4 |
| 20260506135003 | 16 | 206 | 0.0 | 3.2 | 0.00 | 0.00 | 0.00 | 89 | 972.5 |
| 20260506134504 | 16 | 180 | 3.2 | 4.8 | 0.00 | 0.00 | 0.00 | 89 | 972.5 |
| 20260506134004 | 16 | 228 | 3.2 | 4.8 | 0.00 | 0.00 | 0.00 | 88 | 972.5 |
| 20260506133504 | 16 | 202 | 3.2 | 9.7 | 0.00 | 0.00 | 0.00 | 87 | 972.6 |
| 20260506133004 | 16 | 203 | 3.2 | 8.0 | 0.00 | 0.00 | 0.00 | 87 | 972.6 |
| 20260506132504 | 16 | 187 | 3.2 | 4.8 | 0.00 | 0.00 | 0.00 | 87 | 972.6 |
| 20260506132005 | 17 | 175 | 4.8 | 9.7 | 0.00 | 0.00 | 0.00 | 85 | 972.6 |
| 20260506131504 | 17 | 243 | 4.8 | 9.7 | 0.00 | 0.00 | 0.00 | 84 | 972.6 |
| 20260506131004 | 17 | 148 | 3.2 | 9.7 | 0.00 | 0.00 | 0.00 | 84 | 972.3 |
| 20260506130504 | 17 | 226 | 4.8 | 9.7 | 0.00 | 0.00 | 0.00 | 84 | 972.3 |
| 20260506130005 | 17 | 222 | 6.4 | 8.0 | 0.00 | 0.00 | 0.00 | 84 | 972.1 |
| 20260506125504 | 17 | 139 | 3.2 | 9.7 | 0.00 | 0.00 | 0.00 | 84 | 972.1 |
| 20260506125004 | 17 | 189 | 3.2 | 4.8 | 0.00 | 0.00 | 0.00 | 85 | 972.1 |
| 20260506124504 | 17 | 191 | 4.8 | 8.0 | 0.00 | 0.00 | 0.00 | 85 | 972.2 |
| 20260506123004 | 17 | 189 | 4.8 | 8.0 | 0.00 | 0.00 | 0.00 | 84 | 972.1 |
| 20260506122504 | 17 | 166 | 3.2 | 8.0 | 0.00 | 0.00 | 0.00 | 83 | 972.3 |
| 20260506122004 | 17 | 207 | 4.8 | 8.0 | 0.00 | 0.00 | 0.00 | 83 | 972.3 |
| 20260506121504 | 17 | 205 | 4.8 | 9.7 | 0.00 | 0.00 | 0.00 | 83 | 972.3 |
| 20260506115504 | 17 | 180 | 3.2 | 4.8 | 0.00 | 0.00 | 0.00 | 83 | 972.3 |
| 20260506115004 | 17 | 233 | 4.8 | 8.0 | 0.00 | 0.00 | 0.00 | 83 | 972.3 |
| 20260506114504 | 17 | 189 | 3.2 | 9.7 | 0.00 | 0.00 | 0.00 | 83 | 972.3 |
| 20260506114004 | 17 | 184 | 3.2 | 9.7 | 0.00 | 0.00 | 0.00 | 83 | 972.3 |
| 20260506113504 | 17 | 209 | 4.8 | 9.7 | 0.00 | 0.00 | 0.00 | 83 | 972.3 |
| 20260506113004 | 17 | 225 | 3.2 | 9.7 | 0.00 | 0.00 | 0.00 | 83 | 972.3 |
| 20260506112504 | 17 | 190 | 3.2 | 4.8 | 0.00 | 0.00 | 0.00 | 82 | 972.4 |
| 20260506112004 | 17 | 124 | 4.8 | 4.8 | 0.00 | 0.00 | 0.00 | 82 | 972.4 |
| 20260506111004 | 17 | 202 | 4.8 | 4.8 | 0.00 | 0.00 | 0.00 | 82 | 972.2 |
| 20260506110504 | 17 | 202 | 3.2 | 8.0 | 0.00 | 0.00 | 0.00 | 82 | 972.2 |
| 20260506110004 | 17 | 181 | 3.2 | 4.8 | 0.00 | 0.00 | 0.00 | 82 | 971.9 |
| 20260506105504 | 17 | 184 | 1.6 | 4.8 | 0.00 | 0.00 | 0.00 | 82 | 971.9 |
| 20260506105004 | 16 | 194 | 1.6 | 4.8 | 0.00 | 0.00 | 0.00 | 82 | 971.9 |
| 20260506104004 | 16 | 154 | 3.2 | 8.0 | 0.00 | 0.00 | 0.00 | 82 | 971.9 |
| 20260506103504 | 16 | 167 | 3.2 | 8.0 | 0.00 | 0.00 | 0.00 | 82 | 972.0 |
| 20260506103004 | 16 | 164 | 1.6 | 4.8 | 0.00 | 0.00 | 0.00 | 82 | 972.0 |
| 20260506102504 | 16 | 170 | 1.6 | 3.2 | 0.00 | 0.00 | 0.00 | 82 | 972.0 |
| 20260506101504 | 16 | 180 | 0.0 | 3.2 | 0.00 | 0.00 | 0.00 | 81 | 972.0 |
| 20260506101004 | 16 | 130 | 1.6 | 4.8 | 0.00 | 0.00 | 0.00 | 81 | 972.1 |
| 20260506100504 | 16 | 191 | 3.2 | 4.8 | 0.00 | 0.00 | 0.00 | 81 | 972.1 |
| 20260506100004 | 16 | 160 | 3.2 | 8.0 | 0.00 | 0.00 | 0.00 | 80 | 972.0 |
| 20260506095004 | 16 | 195 | 1.6 | 3.2 | 0.00 | 0.00 | 0.00 | 80 | 972.0 |
| 20260506094503 | 16 | 201 | 3.2 | 3.2 | 0.00 | 0.00 | 0.00 | 80 | 972.0 |
| 20260506093504 | 16 | 153 | 1.6 | 3.2 | 0.00 | 0.00 | 0.00 | 79 | 971.9 |
| 20260506093004 | 16 | 193 | 3.2 | 4.8 | 0.00 | 0.00 | 0.00 | 79 | 971.9 |
| 20260506092504 | 16 | 149 | 3.2 | 3.2 | 0.00 | 0.00 | 0.00 | 79 | 971.9 |
| 20260506092004 | 16 | 176 | 1.6 | 4.8 | 0.00 | 0.00 | 0.00 | 79 | 971.9 |
| 20260506091504 | 16 | 188 | 3.2 | 8.0 | 0.00 | 0.00 | 0.00 | 79 | 971.9 |
| 20260506091004 | 16 | 210 | 3.2 | 8.0 | 0.00 | 0.00 | 0.00 | 79 | 972.1 |
| 20260506090504 | 16 | 209 | 1.6 | 4.8 | 0.00 | 0.00 | 0.00 | 79 | 972.1 |
| 20260506090004 | 16 | 174 | 3.2 | 3.2 | 0.00 | 0.00 | 0.00 | 79 | 972.2 |
| 20260506085504 | 16 | 158 | 3.2 | 3.2 | 0.00 | 0.00 | 0.00 | 79 | 972.2 |
| 20260506085004 | 16 | 101 | 1.6 | 3.2 | 0.00 | 0.00 | 0.00 | 78 | 972.2 |
| 20260506084504 | 16 | 126 | 1.6 | 4.8 | 0.00 | 0.00 | 0.00 | 78 | 972.2 |
| 20260506083504 | 16 | 180 | 0.0 | 0.0 | 0.00 | 0.00 | 0.00 | 78 | 972.3 |
| 20260506083004 | 16 | 180 | 0.0 | 1.6 | 0.00 | 0.00 | 0.00 | 78 | 972.3 |
| 20260506082504 | 16 | 158 | 1.6 | 1.6 | 0.00 | 0.00 | 0.00 | 78 | 972.2 |
| 20260506082004 | 16 | 115 | 3.2 | 3.2 | 0.00 | 0.00 | 0.00 | 77 | 972.2 |
| 20260506081504 | 16 | 140 | 0.0 | 0.0 | 0.00 | 0.00 | 0.00 | 76 | 972.2 |
| 20260506081004 | 16 | 158 | 0.0 | 0.0 | 0.00 | 0.00 | 0.00 | 76 | 972.3 |
| 20260506080504 | 16 | 180 | 0.0 | 1.6 | 0.00 | 0.00 | 0.00 | 76 | 972.3 |
| 20260506073504 | 17 | 157 | 0.0 | 1.6 | 0.00 | 0.00 | 0.00 | 73 | 972.4 |
| 20260506073004 | 17 | 154 | 1.6 | 1.6 | 0.00 | 0.00 | 0.00 | 73 | 972.4 |
| 20260506072504 | 17 | 180 | 1.6 | 1.6 | 0.00 | 0.00 | 0.00 | 73 | 972.4 |
| 20260506072004 | 17 | 171 | 0.0 | 1.6 | 0.00 | 0.00 | 0.00 | 73 | 972.4 |
| 20260506071506 | 17 | 190 | 0.0 | 1.6 | 0.00 | 0.00 | 0.00 | 72 | 972.4 |
| 20260506071004 | 17 | 179 | 1.6 | 4.8 | 0.00 | 0.00 | 0.00 | 71 | 972.4 |
| 20260506070504 | 18 | 233 | 3.2 | 4.8 | 0.00 | 0.00 | 0.00 | 70 | 972.4 |
| 20260506062504 | 18 | 292 | 3.2 | 4.8 | 0.00 | 0.00 | 0.00 | 69 | 973.0 |
| 20260506062004 | 18 | 171 | 3.2 | 8.0 | 0.00 | 0.00 | 0.00 | 69 | 973.0 |
| 20260506061504 | 18 | 98 | 4.8 | 9.7 | 0.00 | 0.00 | 0.00 | 69 | 973.0 |
| 20260506060504 | 18 | 179 | 3.2 | 4.8 | 0.00 | 0.00 | 0.00 | 69 | 973.1 |
| 20260506051004 | 18 | 167 | 1.6 | 1.6 | 0.00 | 0.00 | 0.00 | 68 | 973.3 |
| 20260506050504 | 18 | 117 | 1.6 | 4.8 | 0.00 | 0.00 | 0.00 | 66 | 973.3 |
| 20260506045005 | 18 | 199 | 3.2 | 3.2 | 0.00 | 0.00 | 0.00 | 65 | 973.2 |
| 20260506044504 | 18 | 212 | 3.2 | 4.8 | 0.00 | 0.00 | 0.00 | 64 | 973.2 |
| 20260506044004 | 18 | 155 | 3.2 | 4.8 | 0.00 | 0.00 | 0.00 | 64 | 973.2 |
| 20260506043504 | 19 | 169 | 1.6 | 3.2 | 0.00 | 0.00 | 0.00 | 63 | 973.2 |
| 20260506042504 | 19 | 217 | 6.4 | 8.0 | 0.00 | 0.00 | 0.00 | 60 | 973.3 |
| 20260506042004 | 20 | 169 | 3.2 | 8.0 | 0.00 | 0.00 | 0.00 | 60 | 973.3 |
| 20260506041504 | 20 | 202 | 4.8 | 4.8 | 0.00 | 0.00 | 0.00 | 60 | 973.3 |
| 20260506040004 | 20 | 194 | 4.8 | 4.8 | 0.00 | 0.00 | 0.00 | 59 | 973.3 |
| 20260506035504 | 20 | 202 | 3.2 | 4.8 | 0.00 | 0.00 | 0.00 | 59 | 973.3 |
| 20260506034504 | 20 | 201 | 3.2 | 8.0 | 0.00 | 0.00 | 0.00 | 58 | 973.1 |
| 20260506034004 | 20 | 175 | 3.2 | 8.0 | 0.00 | 0.00 | 0.00 | 58 | 973.1 |
| 20260506033505 | 20 | 159 | 4.8 | 8.0 | 0.00 | 0.00 | 0.00 | 58 | 973.1 |
| 20260506033005 | 20 | 158 | 3.2 | 4.8 | 0.00 | 0.00 | 0.00 | 58 | 973.1 |
| 20260506032504 | 20 | 214 | 3.2 | 8.0 | 0.00 | 0.00 | 0.00 | 57 | 973.1 |
| 20260506032004 | 20 | 225 | 1.6 | 3.2 | 0.00 | 0.00 | 0.00 | 57 | 973.1 |
| 20260506031504 | 20 | 168 | 3.2 | 8.0 | 0.00 | 0.00 | 0.00 | 57 | 973.1 |
| 20260506031004 | 20 | 154 | 4.8 | 8.0 | 0.00 | 0.00 | 0.00 | 56 | 973.1 |
| 20260506030504 | 20 | 170 | 4.8 | 8.0 | 0.00 | 0.00 | 0.00 | 56 | 973.1 |
| 20260506030004 | 20 | 193 | 4.8 | 8.0 | 0.00 | 0.00 | 0.00 | 56 | 973.2 |
| 20260506025504 | 20 | 225 | 3.2 | 8.0 | 0.00 | 0.00 | 0.00 | 56 | 973.2 |
| 20260506025004 | 20 | 204 | 6.4 | 9.7 | 0.00 | 0.00 | 0.00 | 56 | 973.2 |
| 20260506024504 | 20 | 158 | 3.2 | 4.8 | 0.00 | 0.00 | 0.00 | 56 | 973.2 |
| 20260506024004 | 20 | 204 | 3.2 | 4.8 | 0.00 | 0.00 | 0.00 | 55 | 973.2 |
| 20260506023504 | 21 | 205 | 4.8 | 4.8 | 0.00 | 0.00 | 0.00 | 54 | 973.1 |
| 20260506023004 | 21 | 180 | 3.2 | 8.0 | 0.00 | 0.00 | 0.00 | 54 | 973.1 |
| 20260506022504 | 21 | 114 | 3.2 | 4.8 | 0.00 | 0.00 | 0.00 | 53 | 973.2 |
| 20260506021504 | 21 | 136 | 1.6 | 3.2 | 0.00 | 0.00 | 0.00 | 53 | 973.2 |
| 20260506021003 | 21 | 202 | 3.2 | 8.0 | 0.00 | 0.00 | 0.00 | 52 | 973.1 |
| 20260506020504 | 21 | 212 | 4.8 | 9.7 | 0.00 | 0.00 | 0.00 | 51 | 973.1 |
| 20260506020004 | 22 | 210 | 3.2 | 9.7 | 0.00 | 0.00 | 0.00 | 51 | 972.9 |
| 20260506015504 | 22 | 202 | 4.8 | 8.0 | 0.00 | 0.00 | 0.00 | 51 | 972.9 |
| 20260506014504 | 22 | 189 | 4.8 | 8.0 | 0.00 | 0.00 | 0.00 | 51 | 972.6 |
| 20260506014004 | 22 | 247 | 4.8 | 8.0 | 0.00 | 0.00 | 0.00 | 51 | 972.6 |
| 20260506013504 | 22 | 205 | 4.8 | 8.0 | 0.00 | 0.00 | 0.00 | 51 | 972.7 |
| 20260506013004 | 22 | 162 | 4.8 | 8.0 | 0.00 | 0.00 | 0.00 | 51 | 972.7 |
| 20260506012504 | 22 | 270 | 4.8 | 8.0 | 0.00 | 0.00 | 0.00 | 52 | 972.5 |
| 20260506011504 | 22 | 208 | 4.8 | 8.0 | 0.00 | 0.00 | 0.00 | 51 | 972.5 |
| 20260506011004 | 22 | 214 | 6.4 | 9.7 | 0.00 | 0.00 | 0.00 | 51 | 972.4 |
| 20260506010504 | 22 | 170 | 4.8 | 8.0 | 0.00 | 0.00 | 0.00 | 50 | 972.4 |
| 20260506010004 | 22 | 213 | 4.8 | 8.0 | 0.00 | 0.00 | 0.00 | 50 | 972.3 |
| 20260506005504 | 22 | 152 | 6.4 | 9.7 | 0.00 | 0.00 | 0.00 | 50 | 972.3 |
| 20260506005004 | 22 | 214 | 3.2 | 4.8 | 0.00 | 0.00 | 0.00 | 49 | 972.3 |
| 20260506004504 | 22 | 237 | 8.0 | 9.7 | 0.00 | 0.00 | 0.00 | 49 | 972.3 |
| 20260506004004 | 22 | 234 | 4.8 | 9.7 | 0.00 | 0.00 | 0.00 | 49 | 972.3 |
| 20260506003504 | 23 | 203 | 8.0 | 11.3 | 0.00 | 0.00 | 0.00 | 49 | 972.1 |
| 20260506003004 | 23 | 244 | 6.4 | 9.7 | 0.00 | 0.00 | 0.00 | 49 | 972.1 |
| 20260506002504 | 23 | 235 | 6.4 | 9.7 | 0.00 | 0.00 | 0.00 | 49 | 972.0 |
| 20260506002004 | 23 | 195 | 3.2 | 9.7 | 0.00 | 0.00 | 0.00 | 49 | 972.0 |
| 20260506001503 | 23 | 233 | 4.8 | 9.7 | 0.00 | 0.00 | 0.00 | 49 | 972.0 |
| 20260506001004 | 23 | 220 | 8.0 | 14.5 | 0.00 | 0.00 | 0.00 | 49 | 972.1 |
| 20260506000504 | 23 | 193 | 4.8 | 8.0 | 0.00 | 0.00 | 0.00 | 49 | 972.1 |
| 20260506000004 | 23 | 228 | 4.8 | 8.0 | 0.00 | 0.00 | 0.00 | 49 | 972.0 |
| 20260505235504 | 23 | 164 | 4.8 | 8.0 | 0.00 | 0.00 | 0.00 | 49 | 972.0 |
| 20260505235004 | 23 | 133 | 3.2 | 8.0 | 0.00 | 0.00 | 0.00 | 49 | 971.9 |
| 20260505234504 | 23 | 174 | 4.8 | 8.0 | 0.00 | 0.00 | 0.00 | 49 | 971.9 |
| 20260505234004 | 23 | 191 | 4.8 | 9.7 | 0.00 | 0.00 | 0.00 | 49 | 971.9 |
| 20260505233504 | 23 | 197 | 3.2 | 4.8 | 0.00 | 0.00 | 0.00 | 49 | 971.8 |
| 20260505233004 | 23 | 229 | 3.2 | 4.8 | 0.00 | 0.00 | 0.00 | 48 | 971.8 |
| 20260505232504 | 23 | 225 | 4.8 | 8.0 | 0.00 | 0.00 | 0.00 | 48 | 971.8 |
| 20260505232004 | 23 | 202 | 3.2 | 4.8 | 0.00 | 0.00 | 0.00 | 48 | 971.8 |
| 20260505231504 | 23 | 161 | 3.2 | 4.8 | 0.00 | 0.00 | 0.00 | 48 | 971.8 |
| 20260505230504 | 23 | 212 | 3.2 | 9.7 | 0.00 | 0.00 | 0.00 | 47 | 971.8 |
| 20260505225504 | 24 | 202 | 4.8 | 8.0 | 0.00 | 0.00 | 0.00 | 46 | 971.7 |
| 20260505225004 | 24 | 171 | 3.2 | 9.7 | 0.00 | 0.00 | 0.00 | 45 | 971.6 |
| 20260505224505 | 24 | 158 | 6.4 | 9.7 | 0.00 | 0.00 | 0.00 | 45 | 971.6 |
| 20260505224004 | 24 | 184 | 3.2 | 8.0 | 0.00 | 0.00 | 0.00 | 45 | 971.6 |
| 20260505223504 | 25 | 180 | 4.8 | 9.7 | 0.00 | 0.00 | 0.00 | 45 | 971.5 |
| 20260505223004 | 25 | 190 | 4.8 | 9.7 | 0.00 | 0.00 | 0.00 | 44 | 971.5 |
| 20260505222504 | 25 | 219 | 6.4 | 9.7 | 0.00 | 0.00 | 0.00 | 44 | 971.5 |
| 20260505222004 | 25 | 225 | 3.2 | 8.0 | 0.00 | 0.00 | 0.00 | 44 | 971.5 |
| 20260505221504 | 25 | 191 | 4.8 | 8.0 | 0.00 | 0.00 | 0.00 | 44 | 971.5 |
| 20260505221004 | 25 | 191 | 4.8 | 9.7 | 0.00 | 0.00 | 0.00 | 44 | 971.3 |
| 20260505220004 | 25 | 199 | 4.8 | 9.7 | 0.00 | 0.00 | 0.00 | 44 | 971.3 |
| 20260505215504 | 25 | 264 | 3.2 | 4.8 | 0.00 | 0.00 | 0.00 | 44 | 971.3 |
| 20260505215004 | 25 | 169 | 4.8 | 9.7 | 0.00 | 0.00 | 0.00 | 44 | 971.2 |
| 20260505214004 | 26 | 212 | 4.8 | 11.3 | 0.00 | 0.00 | 0.00 | 42 | 971.2 |
| 20260505213504 | 26 | 207 | 6.4 | 16.1 | 0.00 | 0.00 | 0.00 | 42 | 971.0 |
| 20260505212504 | 26 | 213 | 3.2 | 11.3 | 0.00 | 0.00 | 0.00 | 42 | 971.0 |
| 20260505212004 | 27 | 215 | 8.0 | 11.3 | 0.00 | 0.00 | 0.00 | 41 | 971.0 |
| 20260505211504 | 27 | 200 | 4.8 | 11.3 | 0.00 | 0.00 | 0.00 | 41 | 971.0 |
| 20260505211004 | 27 | 192 | 6.4 | 11.3 | 0.00 | 0.00 | 0.00 | 41 | 970.7 |
| 20260505210504 | 27 | 194 | 8.0 | 11.3 | 0.00 | 0.00 | 0.00 | 41 | 970.7 |
| 20260505210004 | 28 | 164 | 4.8 | 9.7 | 0.00 | 0.00 | 0.00 | 38 | 970.8 |
| 20260505205504 | 28 | 268 | 8.0 | 14.5 | 0.00 | 0.00 | 0.00 | 35 | 970.8 |
| 20260505205004 | 28 | 238 | 6.4 | 12.9 | 0.00 | 0.00 | 0.00 | 34 | 970.8 |
| 20260505204504 | 29 | 260 | 8.0 | 14.5 | 0.00 | 0.00 | 0.00 | 34 | 970.8 |
| 20260505204005 | 29 | 261 | 9.7 | 14.5 | 0.00 | 0.00 | 0.00 | 33 | 970.8 |
| 20260505203504 | 28 | 236 | 6.4 | 12.9 | 0.00 | 0.00 | 0.00 | 35 | 970.9 |
| 20260505203004 | 28 | 195 | 6.4 | 12.9 | 0.00 | 0.00 | 0.00 | 35 | 970.9 |
| 20260505202504 | 27 | 180 | 8.0 | 11.3 | 0.00 | 0.00 | 0.00 | 35 | 971.0 |